Flag for United Kingdom Weather past 2 weeks in St. Peter Port, Guernsey, United Kingdom

Now
63 °F

Passing clouds.


Feels Like: 63 °F
Forecast: 63 / 70 °F
Wind: 6 mph from Southeast

Location: Guernsey Airport

Current Time: Sep 19, 2014 at 7:25:11 AM

Latest Report: Sep 19, 2014 at 6:50 AM


Visibility: N/A

Pressure: 29.77 "Hg

Humidity: 94%

Dew point: 61 °F

Location of St. Peter PortLocation

Historic Weather in St. Peter Port — Graph

°F

St. Peter Port temperature yesterday

Maximum temperature yesterday: 72 °F (at 11:50 AM)
Minimum temperature yesterday: 63 °F (at 8:20 AM)
Average temperature yesterday: 67 °F

Past Weeks' High & Low Weather Summary

 TemperatureHumidityPressure
High75 °F (Sep 16, 2:20 PM)100% (Sep 4, 6:20 AM)30.24 "Hg (Sep 4, 6:20 AM)
Low57 °F (Sep 6, 6:20 AM)57% (Sep 16, 2:50 PM)29.71 "Hg (Sep 17, 3:20 PM)
Average64 °F86%30.01 "Hg
* Reported Sep 4 6:20 AM — Sep 19 6:20 AM, St. Peter Port, Weather by CustomWeather, © 2014

Note: Actual official high and low records may vary slightly from our data, if they occured in-between our weather recording intervals... More about our weather records

Advertising

St. Peter Port weather history for previous 24 hours

 ConditionsComfort  
Time TempWeatherWind HumidityBarometerVisibility
6:20 AM
Sep 19
61 °FClear.3 mph100%29.77 "Hg10 mi
5:50 AM63 °FClear.6 mph94%29.77 "Hg10 mi
5:20 AM63 °FClear.6 mph100%29.77 "Hg10 mi
4:50 AM63 °FClear.7 mph100%29.77 "Hg10 mi
4:20 AM63 °FClear.6 mph100%29.77 "Hg10 mi
3:50 AM64 °FClear.6 mph94%29.77 "Hg10 mi
8:50 PM
Sep 18
66 °FClear.12 mph88%29.77 "Hg10 mi
8:20 PM66 °FClear.12 mph88%29.77 "Hg10 mi
7:50 PM66 °FSunny.10 mph88%29.74 "Hg10 mi
7:20 PM66 °FSunny.9 mph83%29.74 "Hg10 mi
6:50 PM68 °FPassing clouds.8 mph78%29.74 "HgN/A
6:20 PM68 °FSprinkles. Passing clouds.9 mph83%29.74 "HgN/A
5:50 PM66 °FPassing clouds.9 mph88%29.74 "HgN/A
5:20 PM68 °FPassing clouds.10 mph83%29.74 "HgN/A
4:50 PM68 °FPassing clouds.8 mph88%29.74 "HgN/A
4:20 PM70 °FPassing clouds.12 mph83%29.74 "HgN/A
3:50 PM68 °FPassing clouds.9 mph88%29.71 "HgN/A
3:20 PM70 °FPassing clouds.12 mph83%29.74 "HgN/A
2:50 PM68 °FPassing clouds.12 mph88%29.74 "HgN/A
2:20 PM68 °FPassing clouds.12 mph88%29.74 "HgN/A
1:50 PM72 °FPassing clouds.10 mph73%29.74 "HgN/A
1:20 PM70 °FPassing clouds.9 mph78%29.74 "HgN/A
12:50 PM70 °FPassing clouds.10 mph88%29.74 "HgN/A
12:20 PM70 °FPassing clouds.10 mph88%29.74 "HgN/A
11:50 AM72 °FPassing clouds.13 mph83%29.74 "HgN/A
11:20 AM70 °FPassing clouds.13 mph83%29.74 "Hg5 mi
10:50 AM68 °FPassing clouds.12 mph88%29.74 "Hg5 mi
10:20 AM68 °FPassing clouds.12 mph88%29.74 "HgN/A
9:50 AM70 °FPassing clouds.10 mph78%29.71 "HgN/A
9:20 AM68 °FPassing clouds.6 mph83%29.71 "HgN/A
8:50 AM64 °FPassing clouds.5 mph94%29.71 "HgN/A
8:20 AM63 °FPassing clouds.3 mph100%29.71 "HgN/A
7:50 AM64 °FStrong thunderstorms. Scattered clouds.6 mph94%29.74 "Hg3 mi
7:20 AM64 °FThunderstorms. Passing clouds.2 mph94%29.74 "Hg3 mi
Weather by CustomWeather, © 2014

See weather overviewHow to use our weather pages